Weather History for Laramie, WY

Change the Weather History Date:

Thursday, February 28, 2013

  Actual Average Record
Temperature  
Mean Temperature 17 °F 27 °F  
Max Temperature 30 °F 39 °F 61 °F (2006)
Min Temperature 3 °F 15 °F -15 °F (1962)
Degree Days  
Heating Degree Days 48 38  
Month to date heating degree days 1243 1159  
Since 1 July heating degree days 5904 6176  
Cooling Degree Days 0 0  
Month to date cooling degree days 0 0  
Year to date cooling degree days 0 0  
Moisture  
Dew Point 7 °F    
Average Humidity 63    
Maximum Humidity 79    
Minimum Humidity 46    
Precipitation  
Precipitation 0.00 in 0.01 in 0.29 in (1957)
Month to date precipitation 0.10 0.34  
Year to date precipitation 0.25 0.61  
Sea Level Pressure  
Sea Level Pressure 30.35 in    
Wind  
Wind Speed 10 mph (WSW)    
Max Wind Speed 26 mph    
Max Gust Speed 31 mph    
Visibility 10 miles    
Events      
T = Trace of Precipitation, MM = Missing Value Source: NWS Daily Summary

Daily Weather History Graph

Daily Weather History Graph

Search for Another Location

Airport:

Trip Planner

Search our weather history database for the weather conditions in past years. The results will help you decide how hot, cold, wet, or windy it might be!

Date:

Astronomy

Feb. 28, 2013 Rise Set
Actual Time 6:38 AM MST 5:52 PM MST
Civil Twilight 6:10 AM MST 6:20 PM MST
Nautical Twilight 5:38 AM MST 6:52 PM MST
Astronomical Twilight 5:06 AM MST 7:24 PM MST
Moon 9:25 PM MST (2/28) 7:46 AM MST (2/28)
Length of Visible Light 12h 09m
Length of Day
11h 14m
Waning Gibbous, 90% of the Moon is Illuminated
Feb 28
Waning Gibbous
Mar 4
Last Quarter
Mar 11
New
Mar 19
First Quarter
Mar 27
Full

Hourly Weather History & Observations

Time (MST) Temp. Windchill Dew Point Humidity Pressure Visibility Wind Dir Wind Speed Gust Speed Precip Events Conditions
12:53 AM 7.0 °F -1.7 °F -0.0 °F 73% 30.39 in 10.0 mi South 4.6 mph - N/A   Overcast
1:53 AM 7.0 °F -3.3 °F -0.9 °F 70% 30.36 in 10.0 mi South 5.8 mph - N/A   Clear
2:53 AM 6.1 °F -10.9 °F -0.9 °F 73% 30.33 in 10.0 mi SSW 13.8 mph - N/A   Clear
3:53 AM 3.9 °F -5.3 °F -2.9 °F 73% 30.36 in 10.0 mi SW 4.6 mph - N/A   Clear
4:53 AM 7.0 °F -1.7 °F -2.9 °F 64% 30.37 in 10.0 mi WSW 4.6 mph - N/A   Clear
5:53 AM 8.1 °F -8.4 °F -0.9 °F 67% 30.39 in 10.0 mi SW 13.8 mph - N/A   Clear
7:53 AM 10.0 °F -1.9 °F 1.0 °F 67% 30.42 in 10.0 mi WSW 8.1 mph - N/A   Clear
8:53 AM 17.1 °F 10.0 °F 5.0 °F 59% 30.42 in - West 4.6 mph - N/A   Clear
9:53 AM 21.0 °F 8.6 °F 10.0 °F 63% 30.38 in 10.0 mi WSW 12.7 mph - N/A   Partly Cloudy
10:53 AM 26.1 °F 20.5 °F 10.0 °F 51% 30.34 in 10.0 mi NNW 4.6 mph - N/A   Overcast
11:53 AM 26.1 °F 20.5 °F 10.0 °F 51% 30.35 in 10.0 mi NE 4.6 mph - N/A   Overcast
12:53 PM 27.0 °F - 10.0 °F 49% 30.30 in - Calm Calm - N/A   Overcast
2:53 PM 28.0 °F 22.8 °F 14.0 °F 56% 30.29 in - Variable 4.6 mph - N/A   Clear
3:53 PM 27.0 °F 13.2 °F 12.9 °F 56% 30.31 in 10.0 mi West 20.7 mph 25.3 mph N/A   Clear
4:53 PM 25.0 °F 10.2 °F 12.0 °F 58% 30.31 in 10.0 mi West 21.9 mph - N/A   Mostly Cloudy
5:53 PM 24.1 °F 17.0 °F 12.9 °F 62% 30.34 in 10.0 mi WNW 5.8 mph - N/A   Overcast
6:53 PM 21.9 °F 17.2 °F 12.9 °F 68% 30.35 in 10.0 mi SSW 3.5 mph - N/A   Overcast
7:53 PM 18.0 °F 6.1 °F 10.9 °F 74% 30.38 in 10.0 mi West 10.4 mph - N/A   Clear
8:53 PM 17.1 °F 3.0 °F 10.0 °F 74% 30.34 in 10.0 mi West 13.8 mph - N/A   Clear
9:53 PM 21.0 °F 5.4 °F 12.9 °F 71% 30.30 in 10.0 mi WNW 20.7 mph - N/A   Clear
10:53 PM 19.9 °F 5.2 °F 12.0 °F 71% 30.27 in 10.0 mi WNW 17.3 mph - N/A   Clear
11:53 PM 19.9 °F 7.9 °F 12.0 °F 71% 30.30 in 10.0 mi WNW 11.5 mph - N/A   Clear